[[{"header":{"parameterUnit":"m.s-1","parameterCategory":1,"la1":30.2991,"la2":30.254,"lo1":-89.0895,"lo2":-89.0444,"dy":0.0017,"dx":0.0017,"nx":28,"ny":28,"refTime":"2024-06-02T09:00:00:Z","depth":0,"parameterNumber":2,"parameterNumberName":"U-component_of_WINDS"},"data":[0,0,0,0,0,0,0,0,0,0,0,0,0,0,0,0,0,0,0,0,0,0,0,0,0,0,0,0,0,0,0,0,0,0,0,0,0,0,0,0,0,0,0,0,0,0,0,0,0,0,0,0,0,0,0,0,0,0,-2.6204,-2.6203,0,-2.6158,-2.6157,-2.6157,-2.6117,-2.6117,-2.6116,-2.6116,-2.6067,-2.6066,-2.6066,0,0,0,0,0,0,0,0,0,0,0,0,0,-2.6255,-2.6254,-2.6204,-2.6203,-2.6203,-2.6158,-2.6157,-2.6157,-2.6117,-2.6117,-2.6116,-2.6116,-2.6068,-2.6067,-2.6066,0,0,0,0,0,0,0,0,0,0,0,0,0,-2.6223,-2.6254,-2.6204,-2.6178,-2.6175,-2.6158,-2.6157,-2.6156,-2.6117,-2.6117,-2.6116,-2.6115,-2.6068,-2.6067,-2.6065,-2.607,0,0,-2.6061,-2.6061,0,0,0,0,0,0,0,0,-2.6225,-2.6221,-2.6182,-2.6179,-2.6176,-2.6143,-2.6157,-2.6128,-2.6118,-2.6139,-2.6116,-2.6115,-2.6093,-2.6089,-2.6082,-2.6068,-2.6066,-2.6061,-2.606,-2.606,-2.6059,0,0,0,0,0,0,0,-2.6227,-2.6223,-2.6185,-2.6181,-2.6178,-2.6167,-2.6162,-2.6152,-2.612,-2.6137,-2.6134,-2.6129,-2.6091,-2.6084,-2.6081,-2.6065,-2.6061,-2.606,-2.6059,-2.6059,-2.6051,-2.6052,0,0,0,0,0,0,-2.6234,-2.6225,-2.6187,-2.6184,-2.62,-2.6167,-2.6161,-2.6154,-2.612,-2.6114,-2.613,-2.6128,-2.6086,-2.6082,-2.6079,-2.6081,-2.606,-2.6059,-2.6058,-2.6051,-2.6051,-2.6052,0,0,0,0,0,0,-2.6235,-2.6231,-2.6189,-2.6204,-2.6198,-2.6167,-2.6159,-2.6153,-2.6146,-2.6115,-2.6109,-2.6128,-2.6085,-2.6081,-2.6073,-2.6079,-2.6058,-2.6057,-2.605,-2.6051,-2.6052,-2.6087,0,0,0,0,0,0,-2.6237,-2.6232,-2.6234,-2.6204,-2.6197,-2.6184,-2.616,-2.6153,-2.6144,-2.614,-2.6112,-2.6106,-2.6085,-2.6075,-2.6071,-2.6077,-2.6056,-2.6049,-2.605,-2.6052,-2.6085,-2.6089,-2.6092,0,0,0,0,0,-2.6239,-2.6245,-2.6234,-2.623,-2.6199,-2.6184,-2.618,-2.6156,-2.6145,-2.6146,-2.6126,-2.6107,-2.6079,-2.6074,-2.607,-2.6075,-2.6049,-2.605,-2.6051,-2.6083,-2.6088,-2.6092,0,0,0,0,0,0,-2.6276,-2.6241,-2.6228,-2.6225,-2.6208,-2.6178,-2.6179,-2.6162,-2.6147,-2.6144,-2.6114,-2.6108,-2.6103,-2.6088,-2.6083,-2.6078,-2.6061,-2.6062,-2.6087,-2.6091,-2.6095,-2.6098,-2.6055,0,0,0,0,0,-2.6284,-2.6275,-2.6245,-2.6246,-2.6238,-2.621,-2.6203,-2.6185,-2.6166,-2.6158,-2.6138,-2.6119,-2.6106,-2.6098,-2.6084,-2.6083,-2.6075,-2.6085,-2.6088,-2.6091,-2.6092,-2.6088,-2.6092,-2.6057,-2.6057,-2.6057,0,0,-2.63,-2.628,-2.6276,-2.6253,-2.6237,-2.6228,-2.6204,-2.6196,-2.6189,-2.6157,-2.6148,-2.6132,-2.6109,-2.6104,-2.6101,-2.6092,-2.61,-2.6093,-2.6096,-2.6094,-2.609,-2.6093,-2.6096,-2.6058,-2.6057,-2.6057,0,0,-2.6324,-2.6309,-2.6307,-2.6292,-2.627,-2.6251,-2.6251,-2.6223,-2.6211,-2.6201,-2.6177,-2.6168,-2.6146,-2.6131,-2.612,-2.6138,-2.612,-2.6135,-2.6153,-2.615,-2.6153,-2.6155,-2.616,-2.6163,-2.6136,-2.6136,-2.6136,0,-2.6347,-2.6333,-2.6308,-2.6301,-2.6291,-2.6263,-2.626,-2.6246,-2.622,-2.6213,-2.6204,-2.6176,-2.6159,-2.6149,-2.6153,-2.6146,-2.6143,-2.6137,-2.6155,-2.6157,-2.6159,-2.6163,-2.6165,-2.6138,-2.6137,-2.6137,-2.6137,0,-2.6362,-2.6352,-2.6354,-2.6329,-2.6319,-2.6314,-2.6288,-2.628,-2.6264,-2.6246,-2.6236,-2.6215,-2.6196,-2.6192,-2.6176,-2.618,-2.6175,-2.6161,-2.6143,-2.6164,-2.6168,-2.6169,-2.614,-2.614,-2.6139,-2.6139,0,0,-2.6408,-2.6369,-2.637,-2.6358,-2.6331,-2.6323,-2.6316,-2.6298,-2.6292,-2.6275,-2.6268,-2.625,-2.6237,-2.6224,-2.6206,-2.6204,-2.6218,-2.619,-2.6189,-2.6195,-2.6219,-2.6229,-2.6231,-2.6206,-2.6207,-2.6207,-2.622,0,-2.6427,-2.6414,-2.6391,-2.6385,-2.6375,-2.6348,-2.6342,-2.6325,-2.6308,-2.6296,-2.6277,-2.6265,-2.6249,-2.6241,-2.6238,-2.6217,-2.6222,-2.6216,-2.6198,-2.6198,-2.6203,-2.6233,-2.6244,-2.6258,-2.6222,-2.6222,-2.6222,0,-2.6447,-2.6432,-2.6425,-2.6397,-2.6392,-2.6388,-2.6369,-2.6359,-2.6337,-2.6325,-2.6312,-2.6292,-2.6282,-2.6268,-2.6254,-2.625,-2.6241,-2.623,-2.623,-2.6226,-2.621,-2.6229,-2.6262,-2.6264,-2.6225,-2.6224,-2.6224,0,-2.6479,-2.6457,-2.645,-2.6441,-2.6409,-2.6406,-2.6392,-2.6371,-2.6361,-2.6344,-2.6337,-2.632,-2.6309,-2.6296,-2.6271,-2.6263,-2.6259,-2.6243,-2.6248,-2.6248,-2.6247,-2.6247,-2.6278,-2.6244,-2.6244,-2.6244,-2.6244,0,-2.6502,-2.6499,-2.6464,-2.6459,-2.6454,-2.6428,-2.6424,-2.6407,-2.6388,-2.6379,-2.6355,-2.6347,-2.6316,-2.6304,-2.6285,-2.6275,-2.6271,-2.626,-2.6255,-2.6261,-2.6263,-2.6254,-2.6252,-2.6245,-2.6245,-2.6244,-2.6244,0,-2.6537,-2.6514,-2.6504,-2.6475,-2.6467,-2.6465,-2.6439,-2.6433,-2.6415,-2.6404,-2.64,-2.6371,-2.6355,-2.633,-2.6307,-2.6294,-2.6288,-2.628,-2.6295,-2.6291,-2.6297,-2.6296,-2.6322,-2.6323,-2.6291,-2.6291,-2.6291,0,-2.6553,-2.6549,-2.652,-2.6512,-2.65,-2.6488,-2.6478,-2.6452,-2.6442,-2.6417,-2.6414,-2.6397,-2.6381,-2.6358,-2.6334,-2.6316,-2.6307,-2.6317,-2.6304,-2.631,-2.6305,-2.6305,-2.6304,-2.632,-2.632,-2.6321,-2.6321,0,-2.6582,-2.6571,-2.6557,-2.654,-2.6528,-2.6513,-2.6497,-2.6492,-2.6461,-2.6452,-2.6436,-2.6424,-2.6401,-2.6383,-2.6362,-2.6347,-2.6328,-2.6325,-2.6325,-2.6331,-2.634,-2.6334,-2.6302,-2.6325,-2.6324,-2.6324,-2.6324,-2.6324,-2.6607,-2.6602,-2.658,-2.6566,-2.6551,-2.6536,-2.6529,-2.6509,-2.6496,-2.6475,-2.646,-2.6445,-2.6423,-2.6393,-2.6379,-2.6366,-2.6357,-2.6358,-2.6357,-2.6357,-2.6359,-2.6343,-2.6362,-2.6362,-2.6362,-2.6361,-2.6361,0,-2.6634,-2.6618,-2.6606,-2.6583,-2.6572,-2.6556,-2.6537,-2.6528,-2.6515,-2.6496,-2.6482,-2.6463,-2.6446,-2.6421,-2.6402,-2.6396,-2.6387,-2.6392,-2.6391,-2.6388,-2.6369,-2.637,-2.64,-2.64,-2.64,-2.64,-2.64,-2.64,-2.6646,-2.6637,-2.6623,-2.6606,-2.659,-2.6576,-2.6566,-2.6551,-2.6536,-2.6516,-2.6502,-2.6487,-2.6465,-2.6444,-2.6427,-2.642,-2.6413,-2.6421,-2.6411,-2.6393,-2.6389,-2.6386,-2.6387,-2.642,-2.642,-2.6431,-2.6431,-2.6431]},{"header":{"parameterUnit":"m.s-1","parameterCategory":1,"la1":30.2991,"la2":30.254,"lo1":-89.0895,"lo2":-89.0444,"dy":0.0017,"dx":0.0017,"nx":28,"ny":28,"refTime":"2024-06-02T09:00:00:Z","depth":0,"parameterNumber":3,"parameterNumberName":"V-component_of_WINDS"},"data":[0,0,0,0,0,0,0,0,0,0,0,0,0,0,0,0,0,0,0,0,0,0,0,0,0,0,0,0,0,0,0,0,0,0,0,0,0,0,0,0,0,0,0,0,0,0,0,0,0,0,0,0,0,0,0,0,0,0,-0.9826,-0.9827,0,-0.9906,-0.9907,-0.9908,-1.0014,-1.0016,-1.0018,-1.0019,-1.01,-1.01,-1.0101,0,0,0,0,0,0,0,0,0,0,0,0,0,-0.9764,-0.9764,-0.9826,-0.9827,-0.9828,-0.9906,-0.9907,-0.9908,-1.0014,-1.0016,-1.0018,-1.002,-1.01,-1.01,-1.0101,0,0,0,0,0,0,0,0,0,0,0,0,0,-0.9812,-0.9764,-0.9826,-0.989,-0.9897,-0.9906,-0.9907,-0.9908,-1.0013,-1.0016,-1.0019,-1.0021,-1.0099,-1.01,-1.0101,-1.0053,0,0,-1.0103,-1.0104,0,0,0,0,0,0,0,0,-0.9809,-0.9814,-0.988,-0.9886,-0.9893,-0.9953,-0.9915,-0.9957,-1.0013,-0.9969,-1.0019,-1.0022,-1.0049,-1.0054,-1.0063,-1.0057,-1.006,-1.0103,-1.0104,-1.0104,-1.0104,0,0,0,0,0,0,0,-0.9805,-0.9811,-0.9858,-0.9881,-0.9889,-0.9915,-0.9924,-0.9923,-0.9993,-0.9973,-0.9981,-0.9989,-1.0053,-1.0062,-1.0066,-1.0061,-1.0103,-1.0104,-1.0104,-1.0105,-1.0019,-1.0017,0,0,0,0,0,0,-0.9793,-0.9808,-0.9855,-0.986,-0.9857,-0.9914,-0.9925,-0.9931,-0.9993,-1.0005,-0.9987,-0.9994,-1.0059,-1.0065,-1.0069,-1.0017,-1.0104,-1.0105,-1.0105,-1.0022,-1.0019,-1.0016,0,0,0,0,0,0,-0.9791,-0.9796,-0.9852,-0.9836,-0.9845,-0.9912,-0.9918,-0.9931,-0.9941,-1.0004,-1.0017,-0.9983,-1.0062,-1.0068,-1.0056,-1.0021,-1.0105,-1.0106,-1.0025,-1.0021,-1.0017,-0.9912,0,0,0,0,0,0,-0.9789,-0.9795,-0.9777,-0.9835,-0.9846,-0.9838,-0.9916,-0.9931,-0.9942,-0.9952,-1.0004,-1.0015,-1.0064,-1.0054,-1.0057,-1.0024,-1.0107,-1.0029,-1.0023,-1.0019,-0.9919,-0.9905,-0.9892,0,0,0,0,0,-0.9786,-0.9744,-0.9776,-0.9781,-0.9826,-0.9836,-0.9842,-0.99,-0.9938,-0.9921,-0.9962,-1.0013,-1.0024,-1.0052,-1.0056,-1.0022,-1.0031,-1.0025,-1.0019,-0.9925,-0.9907,-0.9893,0,0,0,0,0,0,-0.9681,-0.9753,-0.9789,-0.9765,-0.9793,-0.9854,-0.9834,-0.988,-0.9898,-0.9906,-0.9977,-0.9987,-0.9967,-0.9994,-1.0024,-0.9979,-1.0036,-1.003,-0.9962,-0.9947,-0.9934,-0.9928,-1.0107,0,0,0,0,0,-0.9655,-0.9657,-0.972,-0.9693,-0.9705,-0.9767,-0.9773,-0.9815,-0.9848,-0.986,-0.99,-0.9929,-0.9939,-0.9944,-0.9957,-0.9923,-0.9936,-0.9902,-0.9888,-0.9877,-0.9872,-0.9855,-0.9841,-0.9996,-0.9996,-0.9996,0,0,-0.9601,-0.9641,-0.9638,-0.9673,-0.97,-0.97,-0.9776,-0.9774,-0.9775,-0.986,-0.9852,-0.9881,-0.9918,-0.9895,-0.9887,-0.9917,-0.9831,-0.987,-0.986,-0.9861,-0.9847,-0.9832,-0.9819,-0.9992,-0.9992,-0.9993,0,0,-0.9504,-0.9534,-0.9514,-0.954,-0.958,-0.9621,-0.9616,-0.9669,-0.9693,-0.9685,-0.9749,-0.9751,-0.9767,-0.9791,-0.9805,-0.9715,-0.9763,-0.9717,-0.9649,-0.9632,-0.9619,-0.9609,-0.9577,-0.9564,-0.9711,-0.9711,-0.9711,0,-0.9432,-0.9436,-0.9498,-0.9492,-0.9505,-0.9582,-0.9562,-0.9584,-0.9625,-0.9632,-0.9665,-0.9687,-0.9717,-0.97,-0.9678,-0.9687,-0.9683,-0.9712,-0.9616,-0.9606,-0.9597,-0.9567,-0.9555,-0.9705,-0.9706,-0.9706,-0.9707,0,-0.9345,-0.9347,-0.9326,-0.9365,-0.9375,-0.9362,-0.9422,-0.9425,-0.9466,-0.9503,-0.9494,-0.9533,-0.9555,-0.9554,-0.9594,-0.9543,-0.956,-0.9603,-0.9662,-0.9576,-0.9549,-0.9538,-0.9697,-0.9699,-0.9701,-0.9702,0,0,-0.9184,-0.9257,-0.9249,-0.9267,-0.9316,-0.9319,-0.9308,-0.933,-0.9331,-0.9357,-0.935,-0.9362,-0.9402,-0.9418,-0.9461,-0.9446,-0.9372,-0.9492,-0.9493,-0.9468,-0.9317,-0.9284,-0.927,-0.9404,-0.9402,-0.94,-0.9314,0,-0.9096,-0.9084,-0.9139,-0.9112,-0.9114,-0.9187,-0.9178,-0.9207,-0.9241,-0.9247,-0.9286,-0.9292,-0.9345,-0.9355,-0.9344,-0.9383,-0.9343,-0.939,-0.9398,-0.9397,-0.9386,-0.9256,-0.9221,-0.9138,-0.9304,-0.9302,-0.9301,0,-0.8992,-0.9012,-0.8985,-0.9036,-0.9038,-0.903,-0.9054,-0.9059,-0.9093,-0.9119,-0.9136,-0.9185,-0.9179,-0.9234,-0.9225,-0.9256,-0.9263,-0.9282,-0.928,-0.9283,-0.9344,-0.9255,-0.9113,-0.91,-0.9285,-0.9286,-0.9287,0,-0.8877,-0.8898,-0.8884,-0.8897,-0.8956,-0.8948,-0.8972,-0.9009,-0.9018,-0.9038,-0.9045,-0.9064,-0.9075,-0.9088,-0.9141,-0.9177,-0.9126,-0.9186,-0.9147,-0.9145,-0.9133,-0.9133,-0.8989,-0.9137,-0.9137,-0.9137,-0.9138,0,-0.8773,-0.8753,-0.8833,-0.8825,-0.8805,-0.8868,-0.8847,-0.8878,-0.8909,-0.8908,-0.8972,-0.8969,-0.9039,-0.9044,-0.9085,-0.9071,-0.9076,-0.9096,-0.9107,-0.909,-0.9088,-0.9095,-0.9102,-0.9134,-0.9135,-0.9135,-0.9136,0,-0.8642,-0.8694,-0.8684,-0.874,-0.8753,-0.8736,-0.8784,-0.8778,-0.8816,-0.8813,-0.8816,-0.8876,-0.8885,-0.8939,-0.896,-0.8988,-0.8959,-0.8982,-0.8947,-0.8955,-0.8912,-0.8915,-0.8769,-0.8752,-0.891,-0.8908,-0.8907,0,-0.8572,-0.8558,-0.8613,-0.8616,-0.8637,-0.8642,-0.8652,-0.8714,-0.8721,-0.8758,-0.8747,-0.8761,-0.8776,-0.8786,-0.8831,-0.8847,-0.8871,-0.8818,-0.8874,-0.8857,-0.887,-0.887,-0.8868,-0.8806,-0.8804,-0.8803,-0.8801,0,-0.8442,-0.8469,-0.848,-0.85,-0.851,-0.8529,-0.8551,-0.855,-0.8619,-0.8624,-0.8633,-0.8644,-0.8666,-0.8679,-0.8702,-0.8727,-0.8775,-0.8783,-0.8775,-0.8758,-0.8738,-0.8748,-0.8915,-0.8787,-0.8788,-0.8789,-0.879,-0.879,-0.834,-0.8331,-0.8367,-0.8378,-0.8401,-0.8421,-0.8418,-0.8455,-0.8464,-0.8487,-0.8523,-0.8527,-0.8561,-0.8598,-0.8618,-0.8622,-0.865,-0.8638,-0.8635,-0.8631,-0.8622,-0.8737,-0.8627,-0.8627,-0.8628,-0.8628,-0.8628,0,-0.8213,-0.824,-0.8249,-0.8278,-0.8286,-0.8331,-0.8358,-0.8361,-0.8365,-0.8392,-0.8405,-0.8415,-0.8428,-0.8473,-0.8491,-0.8485,-0.8507,-0.8487,-0.8488,-0.8493,-0.8596,-0.8602,-0.8469,-0.8469,-0.8469,-0.8469,-0.8469,-0.8469,-0.8148,-0.8135,-0.8166,-0.8165,-0.8192,-0.8197,-0.8209,-0.8227,-0.8249,-0.8258,-0.8269,-0.8298,-0.8333,-0.8353,-0.8366,-0.8379,-0.8382,-0.8354,-0.8374,-0.847,-0.8486,-0.85,-0.8506,-0.8355,-0.8354,-0.8271,-0.827,-0.8269]}]]